Zurück zum Katalog

FENGYUN 1C DEB

AktivPO
NORAD 35147·DEBRIS·🇨🇳 China

Gestartet May 10, 1999 von Taiyuan Satellite Launch Center

Loading…

Nächste Überflüge (nächste 24 Stunden)

TLE

AktuellSource: Space-Track

Epoche: Sep 14, 2026, 13:55 UTC

1 35147U 99025DMB 26257.58013309  .00010490  00000-0  13138-2 0  9998
2 35147  99.4853  24.4739 0026996  77.7873 282.6356 14.82231505783809

Verfolge FENGYUN 1C DEB in Echtzeit mit AllMySat

Download on the App Store